Regional Weather Roundup
Issued by NWS Charleston, SC

Current Version | Previous Version | Text Only | Print | Product List | Glossary Off
Versions: 1 2 3 4 5 6 7 8 9 10 11 12 13 14 15 16 17 18 19 20 21 22 23 24 25 26 27 28 29 30 31 32 33 34 35 36 37 38 39 40 41 42 43 44 45 46 47 48 49 50
000 ASUS42 KCHS 162327 RWRCHS REGIONAL WEATHER ROUNDUP NATIONAL WEATHER SERVICE CHARLESTON SC 700 PM EDT MON OCT 16 2017 NOTE: "FAIR" INDICATES FEW OR NO CLOUDS BELOW 12,000 FEET WITH NO SIGNIFICANT WEATHER AND/OR OBSTRUCTIONS TO VISIBILITY. NOT ALL STATIONS ARE QUALITY CONTROLLED. USE DATA WITH CAUTION... ESPECIALLY DEWPOINT OBSERVATIONS. SCZ027-030-031-034>040-042>050-170000- ...SOUTHEAST SOUTH CAROLINA... CITY SKY/WX TMP DP RH WIND PRES REMARKS N CHARLESTON CLOUDY 65 60 84 N16 30.04R WATERFRONT PRK NOT AVBL JOHNS ISLAND N/A 66 64 94 N12G21 30.02R PINOPOLIS N/A 66 61 82 NE22 29.95R MONCKS CORNER CLOUDY 63 57 82 N14G25 30.07R SUMMERVILLE CLOUDY 64 59 82 N16G22 30.06R BEAUFORT MCAS CLOUDY 68 65 90 N22G29 30.02R BEAUFORT ARPT CLOUDY 66 63 88 N21G31 30.02R HILTON HEAD IS RAIN 72 70 94 NE25G31 29.99R WALTERBORO CLOUDY 64 55 72 N9G16 30.06S ALLENDALE NOT AVBL ...SOUTHERN MIDLANDS AND PEE DEE... CITY SKY/WX TMP DP RH WIND PRES REMARKS GEORGETOWN CLOUDY 61 61 100 N16G23 30.06R KINGSTREE CLOUDY 61 54 77 N7 30.10R ORANGEBURG CLOUDY 65 53 65 NE13 30.09R BARNWELL N/A 66 59 77 NE9G16 30.08R AIKEN FAIR 63 57 82 NE7 30.13R MANNING DRZL/FOG 63 55 77 MISG 30.09R VSB 1 COLUMBIA MOCLDY 67 53 61 NE8 30.09R SUMTER PTCLDY 64 53 68 NE10 30.08R FLORENCE CLOUDY 62 57 83 NE7 30.11R MYRTLE BEACH CLOUDY 63 54 72 N24 30.07R N MYRTLE BEACH CLOUDY 61 53 75 N22G32 30.05R $$ GAZ063-065-086>088-099>101-113>116-118-119-134>141-150-170000- ...SOUTHEAST GEORGIA... CITY SKY/WX TMP DP RH WIND PRES REMARKS SAVANNAH ARPT CLOUDY 75 70 84 CALM 29.97R HUNTER AAF HVY RAIN 74 71 88 N13 29.95R FORT STEWART LGT RAIN 76 72 87 CALM 29.94R STATESBORO CLOUDY 74 63 69 N14G21 30.03R SYLVANIA CLOUDY 71 65 81 NE15 30.04R CLAXTON CLOUDY 79 69 71 N6 29.99R ...CSRA...CENTRAL AND FAR SOUTHEAST GEORGIA... CITY SKY/WX TMP DP RH WIND PRES REMARKS THOMSON MOCLDY 70 61 73 E10G17 30.13R AUGUSTA-BUSH PTCLDY 70 61 73 NE8 30.06R AUGUSTA-DANIEL CLEAR 70 60 70 NE9 30.07R SWAINSBORO MOCLDY 75 66 73 NE7 30.04R VIDALIA PTCLDY 75 61 60 N6 30.01R EASTMAN FAIR 71 46 41 N5 30.06R HAZLEHURST N/A 77 54 44 N9G17 30.00R ALMA MOCLDY 78 70 76 VRB3 29.98R WAYCROSS CLOUDY 77 71 83 N5 29.97R JESUP NOT AVBL BAXLEY MOCLDY 73 73 100 NW5 29.99R BRUNSWICK CLOUDY 77 66 69 N6 29.98R SAINT SIMONS MOCLDY 75 74 96 CALM 29.96R THUNDER $$ SCZ027-028-034-036>038-045-046-048>050-GAZ119-141-170000- ...LAKE AND SUPPLEMENTAL COASTAL OBSERVATIONS... STATION/POSITION TIME TEMP WIND PRES WAVE SWELL AIR SEA DIR/SP/G HT/PER HT/PER/DIR (UTC) (F) (DEG/KT/KT) (MB) (FT/S) (FT/S/D) WINYAH BAY 2245 63 10/ 12 1017.0R LAKE MURRAY 2250 66 20/ 3/ 6 1018.3R ACE BASIN NERRS 2245 67 360/ 5 1016.0R FORT PULASKI 2300 77 80 CALM / 1 1015.2 SAPELO ISLAND 2300 78 60/ 6 1015.0 $$ ANZ835-935-AMZ111-154-330-350-352-354-370-450-454-472-170000- ...C-MAN AND BUOY OBSERVATIONS... STATION/POSITION TIME TEMP WIND PRES WAVE SWELL AIR SEA DIR/SP/G HT/PER HT/PER/DIR (UTC) (F) (DEG/KT/KT) (MB) (FT/S) (FT/S/D) BUOY 41004 2310 75 81 20/ 21/ 27 1014.5 BUOY 41008 2250 74 80 90/ 14/ 16 1014.4R 2/ 9 2/110/ 9 FOLLY BEACH CMAN 2300 67 10/ 20/ 24 1017.0R CAPERS NEARSHORE 2308 64 78 20/ 19/ 25 1016.2R FRIPP NEARSHORE 2308 73 10/ 23/ 29 N/A STATION/POSITION TIME TEMP WIND PRES WAVE SWELL AIR SEA DIR/SP/G HT/PER HT/PER/DIR (UTC) (F) (DEG/KT/KT) (MB) (FT/S) (FT/S/D) 5E ST. MARYS GA 2300 81 N/A 2/ 9 FRYING PAN BUOY 2310 69 79 360/ 25/ 33 1015.8 BUOY 41025 2250 70 81 10/ 23/ 29 1015.0R 6/ 6 2/180/ 9 CAPE LOOKOUT NC 2300 62 360/ 24/ 29 1016.4R BUOY 41002 2250 78 79 290/ 4/ 6 1013.4F 3/ 8 3/ 80/ 8 BUOY 41010 NOT AVBL ST AUGUSTINE FL 2300 80 83 90/ 6/ 8 1014.0R $$

USA.gov is the U.S. government's official web portal to all federal, state and local government web resources and services.